Weather History for KART - January, 2013

Change the Weather History Date:

Tuesday, January 1, 2013

  Actual Average Record
Temperature  
Mean Temperature 15 °F 21 °F  
Max Temperature 35 °F 31 °F 58 °F (1966)
Min Temperature -6 °F 12 °F -27 °F (1999)
Degree Days  
Heating Degree Days 50 44  
Month to date heating degree days 50 44  
Since 1 July heating degree days 2488 2840  
Cooling Degree Days 0 0  
Month to date cooling degree days 0 0  
Year to date cooling degree days 0 0  
Moisture  
Dew Point 7 °F    
Average Humidity 69    
Maximum Humidity 87    
Minimum Humidity 50    
Precipitation  
Precipitation T in 0.09 in 0.81 in (1961)
Month to date precipitation T 0.09  
Year to date precipitation T 0.09  
Sea Level Pressure  
Sea Level Pressure 29.96 in    
Wind  
Wind Speed 7 mph (NW)    
Max Wind Speed 24 mph    
Max Gust Speed 35 mph    
Visibility 10 miles    
Events Snow    
T = Trace of Precipitation, MM = Missing Value Source: NWS Daily Summary

Daily Weather History Graph

Daily Weather History Graph

Search for Another Location

Airport or City:

Trip Planner

Search our weather history database for the weather conditions in past years. The results will help you decide how hot, cold, wet, or windy it might be!

Date:

Astronomy

Jan. 01, 2013 Rise Set
Actual Time 7:38 AM EST 4:37 PM EST
Civil Twilight 7:05 AM EST 5:09 PM EST
Nautical Twilight 6:29 AM EST 5:46 PM EST
Astronomical Twilight 5:54 AM EST 6:21 PM EST
Moon 9:15 PM EST (1/1) 9:40 AM EST (1/1)
Length of Visible Light 10h 03m
Length of Day
8h 58m
Waning Gibbous, 83% of the Moon is Illuminated
Jan 1
Waning Gibbous
Jan 4
Last Quarter
Jan 11
New
Jan 18
First Quarter
Jan 26
Full

Hourly Weather History & Observations

Time (EST) Temp. Windchill Dew Point Humidity Pressure Visibility Wind Dir Wind Speed Gust Speed Precip Events Conditions
12:56 AM 33.8 °F 22.2 °F 21.2 °F 60% 29.79 in 10.0 mi WNW 20.7 mph 28.8 mph N/A   Overcast
1:56 AM 28.9 °F 16.5 °F 16.0 °F 58% 29.83 in 10.0 mi NW 18.4 mph 25.3 mph N/A   Mostly Cloudy
2:56 AM 27.0 °F 15.2 °F 12.9 °F 56% 29.87 in 10.0 mi WNW 15.0 mph - N/A   Clear
3:56 AM 27.0 °F 18.0 °F 15.1 °F 61% 29.89 in 10.0 mi West 9.2 mph - N/A   Overcast
4:56 AM 26.6 °F 14.3 °F 10.4 °F 51% 29.89 in 10.0 mi West 16.1 mph - N/A   Overcast
5:56 AM 24.1 °F 15.2 °F 10.9 °F 57% 29.92 in 10.0 mi WNW 8.1 mph - N/A   Overcast
6:56 AM 21.2 °F 11.7 °F 14.0 °F 74% 29.92 in 10.0 mi North 8.1 mph - N/A   Overcast
7:56 AM 18.0 °F 11.1 °F 10.9 °F 74% 29.96 in 10.0 mi NE 4.6 mph - N/A   Mostly Cloudy
8:56 AM 15.8 °F 7.2 °F 8.6 °F 73% 29.96 in 10.0 mi NNE 5.8 mph - N/A   Mostly Cloudy
9:56 AM 17.1 °F 4.3 °F 8.1 °F 68% 30.00 in 6.0 mi NE 11.5 mph - 0.00 in Snow Light Snow
10:56 AM 17.6 °F 6.4 °F 8.6 °F 68% 29.99 in 6.0 mi NE 9.2 mph - N/A Snow Light Snow
11:33 AM 17.6 °F 6.4 °F 8.6 °F 68% 29.98 in 9.0 mi North 9.2 mph - 0.00 in   Overcast
11:56 AM 17.1 °F 8.7 °F 8.1 °F 68% 30.00 in 10.0 mi NNE 5.8 mph - 0.00 in   Partly Cloudy
12:38 PM 19.4 °F 14.3 °F 8.6 °F 63% 29.97 in 10.0 mi Variable 3.5 mph - N/A   Mostly Cloudy
12:56 PM 19.0 °F 13.9 °F 9.0 °F 65% 29.98 in 10.0 mi NW 3.5 mph - N/A   Mostly Cloudy
1:33 PM 19.4 °F 8.6 °F 8.6 °F 63% 29.97 in 10.0 mi WNW 9.2 mph - N/A   Scattered Clouds
1:56 PM 19.0 °F 9.0 °F 9.0 °F 65% 29.99 in 10.0 mi West 8.1 mph - N/A   Scattered Clouds
2:07 PM 19.4 °F 12.8 °F 8.6 °F 63% 29.96 in 10.0 mi West 4.6 mph - N/A   Mostly Cloudy
2:18 PM 19.4 °F 12.8 °F 8.6 °F 63% 29.96 in 10.0 mi WNW 4.6 mph - N/A   Scattered Clouds
2:56 PM 19.4 °F 10.4 °F 6.8 °F 58% 29.95 in 10.0 mi NW 6.9 mph - N/A   Clear
3:56 PM 17.6 °F 10.7 °F 3.2 °F 53% 29.95 in 10.0 mi WNW 4.6 mph - N/A   Clear
4:56 PM 12.0 °F - 3.0 °F 67% 30.00 in 10.0 mi Calm Calm - N/A   Clear
5:56 PM 1.9 °F - -2.0 °F 83% 30.01 in 10.0 mi Calm Calm - N/A   Scattered Clouds
6:56 PM -2.0 °F - -5.1 °F 87% 30.04 in 10.0 mi Calm Calm - N/A   Clear
7:56 PM -2.9 °F - -6.0 °F 87% 30.04 in 10.0 mi Calm Calm - N/A   Clear
8:56 PM -2.0 °F -10.1 °F -5.1 °F 87% 30.04 in 10.0 mi NW 3.5 mph - N/A   Clear
9:56 PM 12.9 °F 3.8 °F 1.9 °F 62% 30.04 in 10.0 mi West 5.8 mph - N/A   Clear
10:56 PM -2.0 °F -10.1 °F -5.1 °F 87% 30.04 in 10.0 mi SSW 3.5 mph - N/A   Scattered Clouds
11:56 PM -0.9 °F -11.0 °F -4.0 °F 87% 30.01 in 10.0 mi SSE 4.6 mph - N/A   Partly Cloudy